TITAN 3C TRANSTAGE DEB, 59979

Orbit data source: Space-Track

TITAN 3C TRANSTAGE DEB, 59979 is space debris in GEO originally from a launch on Thu, 26 Sep 1968 UTC launched from the Air Force Eastern Test Range (AFETR). Debris objects in space refer to the collection of defunct objects orbiting the Earth. Examples of debris include non-operational satellites, rocket bodies, and fragments generated from explosions, collisions, or faulty payload assembly.

Not visible in the next 10 days
Identifier
59979, 1968-081AM
Orbit
GEO
Country
Flag of USUS
Related business
Manufacturer
Unknown
Mission
Spacecraft
Bus & Motor
Unknown
Mass
Unknown
Launch date (UTC)
1968-09-26 (57 years ago)
Launch vehicle
Unknown
Launch site
Air Force Eastern Test Range (AFETR)
Object type
Payload
Rocket body
Debris
Shape & HBR
Unknown shape, 1.1 m
Radar Cross Section
RCS unknown

Expand to show TLE details & history
Last TLE update: 3 days ago

TLE from 3 days ago
0 TITAN 3C TRANSTAGE DEB
1 59979U 68081AM  25305.04175407 -.00000029  00000-0  00000-0 0  9997
2 59979   2.1098  66.5876 0046792 146.7432 213.5882  1.03316374 58723
Epoch: 2025-11-01T01:00Z
TLE epoch observation values (Epoch: 2025-11-01T01:00:07.551Z)
Latitude
-0°
Longitude
10.97761°
Altitude
35,115.793 km
Speed
3.093 km/s
True Right ascension
04h 26m 20s
True Declination
0° 00' 00"
Sunlit
Object was in daylight at epoch
Visualization orbit readout
Latitude
Unknown
Longitude
Unknown
Altitude
Unknown
Speed
Unknown
Apparent Right ascension
Unknown
Apparent Declination
Unknown
Sunlit
N/A
Visualization observer readout
Local Sidereal Time
10:13:03
Azimuth
Unknown
Elevation
Unknown
Doppler factor
Unknown
Orbital elements
Apogee altitude
35,148.611 km
Perigee altitude
34,761.797 km
Semi-major axis
41,333.341 km
Eccentricity
0.00468
Inclination
2.1098°
RAAN
66.5876°
Arg. of periapsis
146.7432°
True anomaly
213.29301°
Mean anomaly
213.5882°
Eccentric anomaly
213.44046°
Mean motion
0.25828 °/min
Orbital period
1,393.83 mins
BSTAR
0
Loading maneuver chart data...
Computing Atmospheric mass density...

Documentation

Showing up to 5 results
|